Location: ????????
(37.6846°N, 24.0673°E)
Time: 14:58:27
(UTC+00:00)

NOSS 3-2 (A) - Pass Details

Date: 14 July 2020
Orbit: 798 x 1410 km, 63.4° (Epoch: 31 July)

Event Time Altitude Azimuth Distance (km) Brightness Sun altitude
Exits shadow 02:21:26 12° 231° (SW) 2,301 4.8 -9.5°
Maximum altitude 02:26:32 54° 308° (NW) 1,067 3.7 -8.7°
Drops below altitude 10° 02:32:43 10° 25° (NNE) 2,743 6.9 -7.7°
Sets 02:35:33 0° 30° (NNE) 3,792 7.9 -7.2°
